EN

Hourly Weather Kyushnur

Today, 28 July, Wednesday

Time Temperature Precipitation Wind Pressure Humidity
00:00 +12°C° 0 mm 2 mps 751 mmHg 71%
01:00 +10°C° 0 mm 2 mps 751 mmHg 74%
02:00 +10°C° 0 mm 1 mps 751 mmHg 78%
03:00 +10°C° 0 mm 1 mps 751 mmHg 82%
04:00 +11°C° 0 mm 1 mps 751 mmHg 77%
05:00 +13°C° 0 mm 1 mps 751 mmHg 72%
06:00 +14°C° 0 mm 1 mps 751 mmHg 67%
07:00 +16°C° 0 mm 1 mps 751 mmHg 59%
08:00 +19°C° 0 mm 1 mps 751 mmHg 52%
09:00 +20°C° 0 mm 2 mps 751 mmHg 43%
10:00 +21°C° 0 mm 2 mps 751 mmHg 40%
11:00 +21°C° 0 mm 2 mps 750 mmHg 38%
12:00 +23°C° 0 mm 2 mps 750 mmHg 35%
13:00 +24°C° 0 mm 2 mps 750 mmHg 34%
14:00 +24°C° 0 mm 3 mps 749 mmHg 32%
15:00 +25°C° 0 mm 3 mps 749 mmHg 31%
16:00 +24°C° 0 mm 2 mps 749 mmHg 36%
17:00 +24°C° 0 mm 2 mps 749 mmHg 41%
18:00 +23°C° 0 mm 1 mps 748 mmHg 45%
19:00 +21°C° 0 mm 1 mps 748 mmHg 48%
20:00 +19°C° 0 mm 1 mps 748 mmHg 50%
21:00 +16°C° 0 mm 1 mps 748 mmHg 52%
22:00 +15°C° 0 mm 2 mps 748 mmHg 53%
23:00 +15°C° 0 mm 2 mps 747 mmHg 54%

Tomorrow, 29 July, Thursday

Time Temperature Precipitation Wind Pressure Humidity
00:00 +14°C° 0 mm 2 mps 747 mmHg 54%
01:00 +14°C° 0 mm 2 mps 747 mmHg 56%
02:00 +14°C° 0 mm 2 mps 747 mmHg 58%
03:00 +13°C° 0 mm 3 mps 746 mmHg 59%
04:00 +14°C° 0 mm 3 mps 746 mmHg 61%
05:00 +16°C° 0 mm 3 mps 746 mmHg 62%
06:00 +18°C° 0 mm 3 mps 745 mmHg 63%
07:00 +19°C° 0 mm 3 mps 745 mmHg 60%
08:00 +21°C° 0 mm 3 mps 745 mmHg 57%
09:00 +23°C° 0 mm 4 mps 744 mmHg 54%
10:00 +23°C° 0 mm 4 mps 744 mmHg 55%
11:00 +25°C° 0 mm 4 mps 744 mmHg 56%
12:00 +25°C° 0 mm 5 mps 744 mmHg 57%
13:00 +23°C° 0.2 mm 5 mps 743 mmHg 63%
14:00 +22°C° 0.2 mm 5 mps 743 mmHg 70%
15:00 +21°C° 0.2 mm 4 mps 743 mmHg 77%
16:00 +20°C° 0.1 mm 4 mps 743 mmHg 82%
17:00 +19°C° 0.1 mm 3 mps 742 mmHg 87%
18:00 +18°C° 0.1 mm 3 mps 742 mmHg 92%
19:00 +17°C° 0 mm 2 mps 741 mmHg 94%
20:00 +17°C° 0 mm 2 mps 741 mmHg 96%
21:00 +16°C° 0 mm 1 mps 741 mmHg 98%
22:00 +16°C° 0 mm 1 mps 741 mmHg 98%
23:00 +16°C° 0 mm 1 mps 741 mmHg 98%

Day after tomorrow, 30 July, Friday

Time Temperature Precipitation Wind Pressure Humidity
00:00 +16°C° 0 mm 1 mps 741 mmHg 98%
01:00 +16°C° 0 mm 1 mps 741 mmHg 98%
02:00 +16°C° 0 mm 2 mps 741 mmHg 98%
03:00 +16°C° 0 mm 2 mps 741 mmHg 98%
04:00 +16°C° 0 mm 2 mps 741 mmHg 96%
05:00 +17°C° 0 mm 3 mps 741 mmHg 95%
06:00 +18°C° 0 mm 3 mps 741 mmHg 93%
07:00 +20°C° 0 mm 3 mps 741 mmHg 83%
08:00 +21°C° 0 mm 4 mps 741 mmHg 74%
09:00 +23°C° 0 mm 4 mps 741 mmHg 64%
10:00 +26°C° 0 mm 4 mps 741 mmHg 58%
11:00 +27°C° 0 mm 4 mps 741 mmHg 52%
12:00 +29°C° 0 mm 4 mps 741 mmHg 45%
13:00 +28°C° 0 mm 4 mps 741 mmHg 48%
14:00 +28°C° 0 mm 3 mps 741 mmHg 50%
15:00 +27°C° 0 mm 3 mps 741 mmHg 53%
16:00 +27°C° 0 mm 3 mps 741 mmHg 55%
17:00 +26°C° 0 mm 3 mps 741 mmHg 58%
18:00 +26°C° 0 mm 3 mps 741 mmHg 61%
19:00 +24°C° 0.6 mm 3 mps 741 mmHg 71%
20:00 +21°C° 0.6 mm 3 mps 741 mmHg 82%
21:00 +19°C° 0.6 mm 4 mps 742 mmHg 92%
22:00 +18°C° 0 mm 3 mps 742 mmHg 93%
23:00 +18°C° 0 mm 3 mps 742 mmHg 94%

31 July, Saturday

Time Temperature Precipitation Wind Pressure Humidity
00:00 +17°C° 0 mm 2 mps 742 mmHg 95%
01:00 +17°C° 0 mm 2 mps 742 mmHg 96%
02:00 +17°C° 0 mm 2 mps 742 mmHg 96%
03:00 +18°C° 0 mm 1 mps 741 mmHg 96%
04:00 +18°C° 0 mm 1 mps 741 mmHg 95%
05:00 +18°C° 0 mm 2 mps 741 mmHg 94%
06:00 +18°C° 0 mm 2 mps 741 mmHg 93%
07:00 +19°C° 0.1 mm 2 mps 741 mmHg 91%
08:00 +20°C° 0.1 mm 2 mps 741 mmHg 89%
09:00 +21°C° 0.1 mm 2 mps 741 mmHg 87%
10:00 +22°C° 0.3 mm 3 mps 741 mmHg 83%
11:00 +23°C° 0.3 mm 4 mps 741 mmHg 78%
12:00 +25°C° 0.3 mm 4 mps 741 mmHg 74%
13:00 +26°C° 0.2 mm 4 mps 741 mmHg 64%
14:00 +27°C° 0.2 mm 4 mps 741 mmHg 54%
15:00 +28°C° 0.2 mm 4 mps 741 mmHg 45%
16:00 +27°C° 0 mm 4 mps 741 mmHg 46%
17:00 +27°C° 0 mm 4 mps 741 mmHg 47%
18:00 +26°C° 0 mm 5 mps 741 mmHg 48%
19:00 +23°C° 0 mm 4 mps 742 mmHg 55%
20:00 +21°C° 0 mm 3 mps 742 mmHg 61%
21:00 +19°C° 0 mm 2 mps 742 mmHg 67%
22:00 +18°C° 0 mm 2 mps 742 mmHg 69%
23:00 +18°C° 0 mm 2 mps 742 mmHg 71%

1 August, Sunday

Time Temperature Precipitation Wind Pressure Humidity
00:00 +18°C° 0 mm 2 mps 742 mmHg 74%
01:00 +17°C° 0 mm 2 mps 743 mmHg 75%
02:00 +17°C° 0 mm 2 mps 743 mmHg 77%
03:00 +16°C° 0 mm 2 mps 743 mmHg 79%
04:00 +17°C° 0 mm 2 mps 744 mmHg 77%
05:00 +17°C° 0 mm 2 mps 744 mmHg 75%
06:00 +18°C° 0 mm 2 mps 745 mmHg 73%
07:00 +20°C° 0 mm 2 mps 745 mmHg 65%
08:00 +22°C° 0 mm 3 mps 745 mmHg 57%
09:00 +25°C° 0 mm 3 mps 745 mmHg 49%
10:00 +26°C° 0 mm 3 mps 745 mmHg 45%
11:00 +27°C° 0 mm 3 mps 745 mmHg 42%
12:00 +28°C° 0 mm 3 mps 745 mmHg 38%
13:00 +29°C° 0 mm 3 mps 745 mmHg 37%
14:00 +29°C° 0 mm 3 mps 745 mmHg 36%
15:00 +30°C° 0 mm 3 mps 745 mmHg 35%
16:00 +29°C° 0 mm 3 mps 744 mmHg 39%
17:00 +28°C° 0 mm 3 mps 744 mmHg 43%
18:00 +28°C° 0 mm 3 mps 744 mmHg 46%
19:00 +26°C° 0 mm 3 mps 744 mmHg 51%
20:00 +23°C° 0 mm 4 mps 743 mmHg 56%
21:00 +22°C° 0 mm 4 mps 743 mmHg 61%
22:00 +22°C° 0 mm 4 mps 743 mmHg 60%
23:00 +22°C° 0 mm 4 mps 743 mmHg 59%

2 August, Monday

Time Temperature Precipitation Wind Pressure Humidity
00:00 +23°C° 0 mm 4 mps 743 mmHg 58%
01:00 +22°C° 0 mm 4 mps 743 mmHg 62%
02:00 +21°C° 0 mm 3 mps 743 mmHg 66%
03:00 +20°C° 0 mm 3 mps 743 mmHg 70%
04:00 +20°C° 0 mm 3 mps 744 mmHg 75%
05:00 +20°C° 0 mm 3 mps 744 mmHg 80%
06:00 +19°C° 0 mm 3 mps 745 mmHg 86%
07:00 +21°C° 0 mm 3 mps 745 mmHg 76%
08:00 +22°C° 0 mm 3 mps 745 mmHg 66%
09:00 +25°C° 0 mm 3 mps 746 mmHg 57%
10:00 +26°C° 0 mm 3 mps 746 mmHg 52%
11:00 +27°C° 0 mm 2 mps 746 mmHg 46%
12:00 +29°C° 0 mm 2 mps 746 mmHg 41%
13:00 +29°C° 0 mm 2 mps 746 mmHg 39%
14:00 +30°C° 0 mm 2 mps 745 mmHg 37%
15:00 +30°C° 0 mm 2 mps 745 mmHg 35%
16:00 +30°C° 0 mm 2 mps 745 mmHg 39%
17:00 +29°C° 0 mm 1 mps 745 mmHg 44%
18:00 +28°C° 0 mm 1 mps 745 mmHg 49%
19:00 +26°C° 0 mm 1 mps 745 mmHg 51%
20:00 +24°C° 0 mm 2 mps 745 mmHg 54%
21:00 +21°C° 0 mm 2 mps 745 mmHg 57%
22:00 +21°C° 0 mm 2 mps 745 mmHg 60%
23:00 +20°C° 0 mm 2 mps 745 mmHg 63%
Show more